Hourly Weather Larnaka

Today, 12 July, Sunday

Time Temperature Precipitation Wind Pressure Humidity
00:00 +27°C° 0 mm 5 mps 753 mmHg 40%
01:00 +27°C° 0 mm 6 mps 753 mmHg 41%
02:00 +27°C° 0 mm 6 mps 752 mmHg 40%
03:00 +26°C° 0 mm 5 mps 752 mmHg 43%
04:00 +26°C° 0 mm 5 mps 752 mmHg 45%
05:00 +25°C° 0 mm 5 mps 752 mmHg 48%
06:00 +28°C° 0 mm 5 mps 752 mmHg 46%
07:00 +30°C° 0 mm 5 mps 752 mmHg 45%
08:00 +34°C° 0 mm 5 mps 752 mmHg 40%
09:00 +36°C° 0 mm 5 mps 753 mmHg 39%
10:00 +38°C° 0 mm 6 mps 753 mmHg 38%
11:00 +40°C° 0 mm 7 mps 753 mmHg 37%
12:00 +39°C° 0 mm 8 mps 753 mmHg 38%
13:00 +39°C° 0 mm 8 mps 753 mmHg 39%
14:00 +39°C° 0 mm 9 mps 752 mmHg 40%
15:00 +39°C° 0 mm 9 mps 752 mmHg 42%
16:00 +38°C° 0 mm 9 mps 752 mmHg 45%
17:00 +38°C° 0 mm 9 mps 751 mmHg 48%
18:00 +35°C° 0 mm 9 mps 751 mmHg 49%
19:00 +33°C° 0 mm 8 mps 751 mmHg 51%
20:00 +31°C° 0 mm 8 mps 751 mmHg 53%
21:00 +30°C° 0 mm 7 mps 751 mmHg 52%
22:00 +29°C° 0 mm 7 mps 751 mmHg 51%
23:00 +28°C° 0 mm 6 mps 751 mmHg 50%

Tomorrow, 13 July, Monday

Time Temperature Precipitation Wind Pressure Humidity
00:00 +28°C° 0 mm 5 mps 751 mmHg 57%
01:00 +27°C° 0 mm 5 mps 750 mmHg 63%
02:00 +26°C° 0 mm 4 mps 750 mmHg 69%
03:00 +26°C° 0 mm 4 mps 750 mmHg 68%
04:00 +25°C° 0 mm 3 mps 750 mmHg 67%
05:00 +25°C° 0 mm 2 mps 750 mmHg 66%
06:00 +28°C° 0 mm 2 mps 750 mmHg 60%
07:00 +30°C° 0 mm 2 mps 750 mmHg 54%
08:00 +34°C° 0 mm 2 mps 750 mmHg 48%
09:00 +35°C° 0 mm 3 mps 751 mmHg 48%
10:00 +36°C° 0 mm 3 mps 751 mmHg 47%
11:00 +36°C° 0 mm 4 mps 751 mmHg 46%
12:00 +36°C° 0 mm 5 mps 751 mmHg 47%
13:00 +36°C° 0 mm 6 mps 750 mmHg 48%
14:00 +36°C° 0 mm 7 mps 750 mmHg 49%
15:00 +36°C° 0 mm 7 mps 750 mmHg 45%
16:00 +38°C° 0 mm 8 mps 750 mmHg 41%
17:00 +39°C° 0 mm 8 mps 750 mmHg 37%
18:00 +35°C° 0 mm 8 mps 750 mmHg 42%
19:00 +33°C° 0 mm 7 mps 750 mmHg 47%
20:00 +29°C° 0 mm 7 mps 750 mmHg 52%
21:00 +28°C° 0 mm 6 mps 751 mmHg 51%
22:00 +28°C° 0 mm 5 mps 751 mmHg 50%
23:00 +27°C° 0 mm 5 mps 751 mmHg 49%

Day after tomorrow, 14 July, Tuesday

Time Temperature Precipitation Wind Pressure Humidity
00:00 +26°C° 0 mm 4 mps 751 mmHg 53%
01:00 +26°C° 0 mm 4 mps 751 mmHg 57%
02:00 +26°C° 0 mm 4 mps 751 mmHg 61%
03:00 +26°C° 0 mm 3 mps 751 mmHg 60%
04:00 +25°C° 0 mm 3 mps 751 mmHg 58%
05:00 +25°C° 0 mm 3 mps 751 mmHg 56%
06:00 +28°C° 0 mm 3 mps 751 mmHg 51%
07:00 +31°C° 0 mm 3 mps 752 mmHg 46%
08:00 +35°C° 0 mm 3 mps 752 mmHg 41%
09:00 +36°C° 0 mm 3 mps 753 mmHg 43%
10:00 +36°C° 0 mm 3 mps 753 mmHg 44%
11:00 +37°C° 0 mm 4 mps 753 mmHg 45%
12:00 +37°C° 0 mm 4 mps 753 mmHg 45%
13:00 +37°C° 0 mm 4 mps 753 mmHg 46%
14:00 +37°C° 0 mm 5 mps 753 mmHg 46%
15:00 +37°C° 0 mm 5 mps 753 mmHg 45%
16:00 +37°C° 0 mm 5 mps 753 mmHg 44%
17:00 +38°C° 0 mm 6 mps 753 mmHg 43%
18:00 +35°C° 0 mm 5 mps 753 mmHg 46%
19:00 +33°C° 0 mm 5 mps 753 mmHg 49%
20:00 +30°C° 0 mm 5 mps 753 mmHg 52%
21:00 +30°C° 0 mm 5 mps 753 mmHg 50%
22:00 +29°C° 0 mm 4 mps 753 mmHg 47%
23:00 +29°C° 0 mm 3 mps 753 mmHg 44%

15 July, Wednesday

Time Temperature Precipitation Wind Pressure Humidity
00:00 +28°C° 0 mm 3 mps 753 mmHg 44%
01:00 +28°C° 0 mm 2 mps 753 mmHg 44%
02:00 +27°C° 0 mm 2 mps 753 mmHg 44%
03:00 +27°C° 0 mm 2 mps 753 mmHg 46%
04:00 +26°C° 0 mm 2 mps 753 mmHg 49%
05:00 +26°C° 0 mm 2 mps 753 mmHg 51%
06:00 +29°C° 0 mm 2 mps 754 mmHg 45%
07:00 +33°C° 0 mm 3 mps 754 mmHg 38%
08:00 +37°C° 0 mm 3 mps 755 mmHg 32%
09:00 +38°C° 0 mm 3 mps 755 mmHg 32%
10:00 +38°C° 0 mm 4 mps 755 mmHg 32%
11:00 +40°C° 0 mm 5 mps 755 mmHg 33%
12:00 +41°C° 0 mm 6 mps 755 mmHg 29%
13:00 +43°C° 0 mm 7 mps 755 mmHg 26%
14:00 +43°C° 0 mm 8 mps 755 mmHg 23%
15:00 +43°C° 0 mm 8 mps 754 mmHg 22%
16:00 +41°C° 0 mm 8 mps 754 mmHg 22%
17:00 +40°C° 0 mm 9 mps 754 mmHg 21%
18:00 +38°C° 0 mm 8 mps 754 mmHg 26%
19:00 +34°C° 0 mm 7 mps 754 mmHg 31%
20:00 +30°C° 0 mm 7 mps 754 mmHg 35%
21:00 +29°C° 0 mm 7 mps 754 mmHg 35%
22:00 +28°C° 0 mm 6 mps 754 mmHg 34%
23:00 +27°C° 0 mm 6 mps 754 mmHg 33%

16 July, Thursday

Time Temperature Precipitation Wind Pressure Humidity
00:00 +26°C° 0 mm 6 mps 754 mmHg 39%
01:00 +24°C° 0 mm 6 mps 753 mmHg 44%
02:00 +24°C° 0 mm 6 mps 753 mmHg 50%
03:00 +23°C° 0 mm 6 mps 753 mmHg 51%
04:00 +23°C° 0 mm 5 mps 753 mmHg 51%
05:00 +23°C° 0 mm 5 mps 753 mmHg 52%
06:00 +26°C° 0 mm 5 mps 753 mmHg 52%
07:00 +29°C° 0 mm 5 mps 753 mmHg 51%
08:00 +33°C° 0 mm 5 mps 753 mmHg 50%
09:00 +34°C° 0 mm 5 mps 753 mmHg 47%
10:00 +35°C° 0 mm 5 mps 753 mmHg 43%
11:00 +36°C° 0 mm 6 mps 753 mmHg 40%
12:00 +36°C° 0 mm 6 mps 753 mmHg 38%
13:00 +38°C° 0 mm 7 mps 753 mmHg 36%
14:00 +38°C° 0 mm 7 mps 753 mmHg 34%
15:00 +36°C° 0 mm 7 mps 752 mmHg 35%
16:00 +36°C° 0 mm 7 mps 752 mmHg 37%
17:00 +35°C° 0 mm 8 mps 751 mmHg 39%
18:00 +32°C° 0 mm 7 mps 752 mmHg 51%
19:00 +28°C° 0 mm 7 mps 752 mmHg 63%
20:00 +24°C° 0 mm 6 mps 752 mmHg 75%
21:00 +23°C° 0 mm 6 mps 752 mmHg 76%
22:00 +22°C° 0 mm 5 mps 751 mmHg 76%
23:00 +22°C° 0 mm 4 mps 751 mmHg 77%

17 July, Friday

Time Temperature Precipitation Wind Pressure Humidity
00:00 +21°C° 0 mm 4 mps 751 mmHg 78%
01:00 +20°C° 0 mm 4 mps 751 mmHg 79%
02:00 +20°C° 0 mm 4 mps 751 mmHg 80%
03:00 +19°C° 0 mm 3 mps 751 mmHg 80%
04:00 +19°C° 0 mm 3 mps 751 mmHg 79%
05:00 +19°C° 0 mm 2 mps 751 mmHg 78%
06:00 +22°C° 0 mm 3 mps 751 mmHg 70%
07:00 +26°C° 0 mm 3 mps 751 mmHg 62%
08:00 +30°C° 0 mm 3 mps 751 mmHg 53%
09:00 +32°C° 0 mm 4 mps 751 mmHg 51%
10:00 +33°C° 0 mm 4 mps 752 mmHg 50%
11:00 +34°C° 0 mm 5 mps 752 mmHg 48%
12:00 +34°C° 0 mm 5 mps 752 mmHg 47%
13:00 +34°C° 0 mm 5 mps 751 mmHg 47%
14:00 +35°C° 0 mm 6 mps 751 mmHg 46%
15:00 +34°C° 0 mm 6 mps 751 mmHg 47%
16:00 +34°C° 0 mm 6 mps 751 mmHg 48%
17:00 +34°C° 0 mm 6 mps 751 mmHg 49%
18:00 +30°C° 0 mm 5 mps 751 mmHg 58%
19:00 +28°C° 0 mm 5 mps 751 mmHg 66%
20:00 +26°C° 0 mm 5 mps 751 mmHg 74%
21:00 +25°C° 0 mm 4 mps 751 mmHg 77%
22:00 +23°C° 0 mm 4 mps 751 mmHg 79%
23:00 +22°C° 0 mm 3 mps 751 mmHg 81%
Show more